User: anonymous   Login
Location: Poughquag
(41.6090°N, 73.6820°W)
Time: 18:23:07
(UTC-04:00)
Language:

A-11 Canister half - Orbit

View from above orbital plane
View from above orbital plane
View from above satellite
View from above satellite

Ground track
Ground track

The orbit data is extracted from the following two-line orbital elements,

1    53U 60009E   20090.20021913 +.00000014 +00000-0 +96986-3 0  9998
2    53 047.2749 143.3890 0100407 207.5736 151.9703 12.17241339658911
Epoch (UTC): 30 March 2020 04:48:18
Eccentricity: 0.0100407
inclination: 47.2749°
perigee height: 1524 km
apogee height: 1685 km
right ascension of ascending node: 143.3890°
argument of perigee: 207.5736°
revolutions per day: 12.17241339
mean anomaly at epoch: 151.9703°
orbit number at epoch: 65891

The dashed part of the orbit path shows where the satellite is in the earth's shadow,  

DLR